Terug naar catalogus

SL-8 DEB

ActiefLEO
NORAD 21403·DEBRIS·🇷🇺 Russia

Gelanceerd Feb 12, 1991 vanaf Plesetsk Cosmodrome

Loading…

Volgende Passages (komende 24 uur)

TLE

VersSource: Space-Track

Epoch: Sep 14, 2026, 05:45 UTC

1 21403U 91009BS  26257.23978796  .00000121  00000-0  11099-2 0  9998
2 21403  73.9399 348.7080 0134711 253.9000 132.5491 12.31865049595517

Volg SL-8 DEB in realtime met AllMySat

Download on the App Store